Ashland, WI

9:44 AM CDT on April 23, 2018 (GMT -0500)
Kennedy Memorial

Weather History for KASX - August, 2014

Change the Weather History Date:

Monday, August 18, 2014

  Actual Average Record
Temperature  
Mean Temperature 65 °F -  
Max Temperature 73 °F 79 °F 95 °F (1976)
Min Temperature 57 °F 52 °F 32 °F (1950)
Growing Degree Days 15 (Base 50)    
Moisture  
Dew Point 62 °F    
Average Humidity 92    
Maximum Humidity 100    
Minimum Humidity 79    
Precipitation  
Precipitation 0.50 in - - ()
Sea Level Pressure  
Sea Level Pressure 29.74 in    
Wind  
Wind Speed 4 mph (NE)    
Max Wind Speed 9 mph    
Max Gust Speed -    
Visibility 6 miles    
Events Fog , Rain , Thunderstorm    
Averages and records for this station are not official NWS values.
T = Trace of Precipitation, MM = Missing Value Source: NWS Daily Summary

Daily Weather History Graph

Daily Weather History Graph

Search for Another Location

Airport or City:

Astronomy

Aug. 18, 2014 Rise Set
Actual Time 6:05 AM CDT 8:08 PM CDT
Civil Twilight 5:33 AM CDT 8:40 PM CDT
Nautical Twilight 4:52 AM CDT 9:21 PM CDT
Astronomical Twilight 4:07 AM CDT 10:05 PM CDT
Moon 12:08 AM CDT (8/18) 3:17 PM CDT (8/18)
Length of Visible Light 15h 07m
Length of Day
14h 02m
Last Quarter, 38% of the Moon is Illuminated
Aug 18
Last Quarter
Aug 25
New
Sep 2
First Quarter
Sep 8
Full
Sep 15
Last Quarter

Hourly Weather History & Observations

Time (CDT) Temp. Dew Point Humidity Pressure Visibility Wind Dir Wind Speed Gust Speed Precip Events Conditions
12:53 AM 57.9 °F 55.9 °F 93% 29.92 in 10.0 mi NE 4.6 mph - N/A   Overcast
1:10 AM 59.0 °F 55.9 °F 90% 29.91 in 10.0 mi NE 3.5 mph - N/A   Overcast
2:53 AM 59.0 °F 57.0 °F 93% 29.87 in 10.0 mi Calm Calm - N/A   Overcast
3:53 AM 59.0 °F 57.0 °F 93% 29.86 in 10.0 mi Calm Calm - 0.00 in Rain Light Rain
4:28 AM 59.0 °F 57.0 °F 93% 29.84 in 10.0 mi ENE 3.5 mph - 0.00 in   Overcast
4:53 AM 59.0 °F 57.0 °F 93% 29.85 in 10.0 mi Calm Calm - 0.00 in   Overcast
5:02 AM 59.0 °F 57.0 °F 93% 29.84 in 10.0 mi NE 3.5 mph - N/A   Overcast
5:14 AM 59.0 °F 57.0 °F 93% 29.84 in 10.0 mi North 4.6 mph - N/A   Overcast
5:53 AM 57.9 °F 57.0 °F 97% 29.83 in 10.0 mi ESE 3.5 mph - N/A   Overcast
6:25 AM 59.0 °F 57.9 °F 96% 29.82 in 10.0 mi Calm Calm - N/A   Overcast
6:53 AM 60.1 °F 57.9 °F 93% 29.83 in 10.0 mi Calm Calm - N/A   Overcast
7:53 AM 61.0 °F 59.0 °F 93% 29.82 in 3.0 mi Calm Calm - N/A   Overcast
8:53 AM 62.1 °F 60.1 °F 93% 29.80 in 10.0 mi Calm Calm - N/A   Overcast
9:17 AM 63.0 °F 61.0 °F 93% 29.79 in 10.0 mi Calm Calm - N/A   Overcast
9:53 AM 64.0 °F 61.0 °F 90% 29.79 in 10.0 mi Calm Calm - N/A   Overcast
10:53 AM 64.9 °F 62.1 °F 90% 29.79 in 10.0 mi Calm Calm - N/A   Overcast
11:53 AM 68.0 °F 63.0 °F 84% 29.77 in 10.0 mi Calm Calm - N/A   Overcast
12:53 PM 68.0 °F 64.0 °F 87% 29.76 in 10.0 mi SSW 4.6 mph - N/A   Overcast
1:06 PM 69.1 °F 64.0 °F 84% 29.76 in 10.0 mi SSW 5.8 mph - N/A   Overcast
1:53 PM 71.1 °F 64.9 °F 81% 29.75 in 10.0 mi SW 4.6 mph - N/A   Overcast
2:53 PM 73.0 °F 66.9 °F 81% 29.73 in 10.0 mi SW 4.6 mph - N/A   Overcast
3:04 PM 73.0 °F 66.9 °F 81% 29.73 in 10.0 mi South 6.9 mph - N/A   Overcast
3:37 PM 73.9 °F 66.9 °F 79% 29.71 in 10.0 mi SW 3.5 mph - N/A   Mostly Cloudy
3:53 PM 73.0 °F 66.0 °F 79% 29.70 in 10.0 mi Calm Calm - N/A   Mostly Cloudy
4:07 PM 72.0 °F 66.9 °F 84% 29.71 in 10.0 mi NNW 3.5 mph - N/A   Mostly Cloudy
4:53 PM 72.0 °F 66.9 °F 84% 29.70 in 10.0 mi NNE 5.8 mph - N/A   Mostly Cloudy
5:09 PM 71.1 °F 66.0 °F 84% 29.70 in 9.0 mi NNE 3.5 mph - 0.00 in Rain , Thunderstorm Light Rain
5:19 PM 70.0 °F 66.0 °F 87% 29.71 in 1.2 mi NW 3.5 mph - 0.12 in Rain Light Rain
5:26 PM 68.0 °F 66.0 °F 93% 29.71 in 0.5 mi North 9.2 mph - 0.25 in Fog , Rain Heavy Rain
5:34 PM 68.0 °F 66.0 °F 93% 29.70 in 2.0 mi NNW 6.9 mph - 0.27 in Rain Light Rain
5:39 PM 66.9 °F 64.9 °F 93% 29.70 in 3.0 mi NNW 9.2 mph - 0.28 in Rain Light Rain
5:53 PM 66.0 °F 64.9 °F 96% 29.71 in 2.0 mi NNE 9.2 mph - 0.32 in Rain Heavy Rain
6:00 PM 66.0 °F 64.9 °F 96% 29.71 in 1.8 mi North 8.1 mph - 0.05 in Rain Heavy Rain
6:12 PM 66.9 °F 66.0 °F 97% 29.70 in 7.0 mi North 9.2 mph - 0.05 in Thunderstorm Overcast
6:24 PM 66.9 °F 64.9 °F 93% 29.70 in 7.0 mi NE 9.2 mph - 0.05 in Thunderstorm Mostly Cloudy
6:40 PM 66.0 °F 64.0 °F 93% 29.70 in 7.0 mi NE 5.8 mph - 0.05 in   Overcast
6:53 PM 66.0 °F 64.0 °F 93% 29.70 in 7.0 mi NNE 8.1 mph - 0.05 in   Overcast
7:36 PM 64.9 °F 64.0 °F 97% 29.69 in 2.0 mi NNE 8.1 mph - N/A   Overcast
7:53 PM 64.0 °F 63.0 °F 96% 29.70 in 1.8 mi NE 5.8 mph - 0.01 in Rain Light Rain
8:10 PM 64.0 °F 63.0 °F 96% 29.69 in 0.8 mi NE 6.9 mph - 0.00 in   Mist
8:32 PM 63.0 °F 63.0 °F 100% 29.69 in 0.2 mi ENE 4.6 mph - 0.00 in Fog Fog
8:53 PM 63.0 °F 63.0 °F 100% 29.69 in 0.2 mi East 5.8 mph - 0.00 in Fog Fog
9:50 PM 62.6 °F 62.6 °F 100% 29.69 in 0.5 mi Calm Calm - 0.02 in Fog , Rain Light Rain
9:53 PM 63.0 °F 62.1 °F 97% 29.69 in 0.5 mi Calm Calm - 0.03 in Fog , Rain Light Rain
10:14 PM 63.0 °F 62.1 °F 97% 29.69 in 1.5 mi Calm Calm - 0.04 in Rain Rain
10:22 PM 63.0 °F 62.1 °F 97% 29.69 in 2.0 mi ENE 4.6 mph - 0.05 in Rain Light Rain
10:53 PM 63.0 °F 62.1 °F 97% 29.66 in 2.0 mi ESE 6.9 mph - 0.07 in Rain Light Rain
11:03 PM 63.0 °F 62.1 °F 97% 29.65 in 1.8 mi ESE 5.8 mph - 0.01 in   Overcast
11:15 PM 63.0 °F 62.1 °F 97% 29.66 in 2.5 mi ENE 5.8 mph - 0.01 in Rain Light Rain
11:23 PM 63.0 °F 62.1 °F 97% 29.67 in 5.0 mi Variable 3.5 mph - 0.01 in   Overcast
11:53 PM 63.0 °F 62.1 °F 97% 29.67 in 3.0 mi WNW 3.5 mph - 0.02 in   Overcast